Time,TemperatureF,DewpointF,PressureIn,WindDirection,WindDirectionDegrees,WindSpeedMPH,WindSpeedGustMPH,Humidity,HourlyPrecipIn,Conditions,Clouds,dailyrainin,SoftwareType,DateUTC
2013-09-08 00:01:00,63.7,54.9,29.86,North,0,0.0,0.0,73,0.00,,,0.00,WUHU216HW,2013-09-08 04:01:00,
2013-09-08 00:06:00,63.5,55.1,29.87,North,0,0.0,0.0,74,0.00,,,0.00,WUHU216HW,2013-09-08 04:06:00,
2013-09-08 00:11:00,63.5,55.1,29.87,North,0,0.0,0.0,74,0.00,,,0.00,WUHU216HW,2013-09-08 04:11:00,
2013-09-08 00:16:00,63.4,54.9,29.86,North,0,0.0,0.0,74,0.00,,,0.00,WUHU216HW,2013-09-08 04:16:00,
2013-09-08 00:21:00,63.4,54.9,29.86,North,0,0.0,0.0,74,0.00,,,0.00,WUHU216HW,2013-09-08 04:21:00,
2013-09-08 00:26:00,63.4,54.9,29.86,North,0,0.0,0.0,74,0.00,,,0.00,WUHU216HW,2013-09-08 04:26:00,
2013-09-08 00:31:00,63.4,54.9,29.86,North,0,0.0,0.0,74,0.00,,,0.00,WUHU216HW,2013-09-08 04:31:00,
2013-09-08 00:36:00,63.4,54.9,29.86,North,0,0.0,0.0,74,0.00,,,0.00,WUHU216HW,2013-09-08 04:36:00,
2013-09-08 00:41:00,63.5,55.4,29.86,North,0,0.0,0.0,75,0.00,,,0.00,WUHU216HW,2013-09-08 04:41:00,
2013-09-08 00:46:00,63.5,55.4,29.86,North,0,0.0,0.0,75,0.00,,,0.00,WUHU216HW,2013-09-08 04:46:00,
2013-09-08 00:51:00,63.7,55.3,29.86,North,0,0.0,0.0,74,0.00,,,0.00,WUHU216HW,2013-09-08 04:51:00,
2013-09-08 00:56:00,63.5,55.1,29.86,North,0,0.0,0.0,74,0.00,,,0.00,WUHU216HW,2013-09-08 04:56:00,
2013-09-08 01:01:00,63.4,54.9,29.86,North,0,0.0,0.0,74,0.00,,,0.00,WUHU216HW,2013-09-08 05:01:00,
2013-09-08 01:06:00,63.4,54.9,29.85,North,0,0.0,0.0,74,0.00,,,0.00,WUHU216HW,2013-09-08 05:06:00,
2013-09-08 01:11:00,63.4,54.9,29.86,North,0,0.0,0.0,74,0.00,,,0.00,WUHU216HW,2013-09-08 05:11:00,
2013-09-08 01:16:00,63.4,54.9,29.86,North,0,0.0,0.0,74,0.00,,,0.00,WUHU216HW,2013-09-08 05:16:00,
2013-09-08 01:21:00,63.2,55.1,29.86,North,0,0.0,0.0,75,0.00,,,0.00,WUHU216HW,2013-09-08 05:21:00,
2013-09-08 01:26:00,63.0,54.9,29.85,North,0,0.0,0.0,75,0.00,,,0.00,WUHU216HW,2013-09-08 05:26:00,
2013-09-08 01:31:00,63.0,55.3,29.85,North,0,0.0,0.0,76,0.00,,,0.00,WUHU216HW,2013-09-08 05:31:00,
2013-09-08 01:36:00,62.8,55.1,29.85,North,0,0.0,0.0,76,0.00,,,0.00,WUHU216HW,2013-09-08 05:36:00,
2013-09-08 01:41:00,62.6,54.9,29.86,North,0,0.0,0.0,76,0.00,,,0.00,WUHU216HW,2013-09-08 05:41:00,
2013-09-08 01:46:00,62.6,54.9,29.85,North,0,0.0,0.0,76,0.00,,,0.00,WUHU216HW,2013-09-08 05:46:00,
2013-09-08 01:51:00,62.6,55.3,29.85,North,0,0.0,0.0,77,0.00,,,0.00,WUHU216HW,2013-09-08 05:51:00,
2013-09-08 01:56:00,62.6,55.3,29.84,North,0,0.0,0.0,77,0.00,,,0.00,WUHU216HW,2013-09-08 05:56:00,
2013-09-08 02:01:00,62.5,55.8,29.85,North,0,0.0,0.0,79,0.00,,,0.00,WUHU216HW,2013-09-08 06:01:00,
2013-09-08 02:06:00,62.3,55.3,29.85,North,0,0.0,0.0,78,0.00,,,0.00,WUHU216HW,2013-09-08 06:06:00,
2013-09-08 02:11:00,62.1,55.5,29.84,North,0,0.0,0.0,79,0.00,,,0.00,WUHU216HW,2013-09-08 06:11:00,
2013-09-08 02:16:00,61.9,55.4,29.84,North,0,0.0,0.0,79,0.00,,,0.00,WUHU216HW,2013-09-08 06:16:00,
2013-09-08 02:21:00,61.7,55.2,29.83,North,0,0.0,0.0,79,0.00,,,0.00,WUHU216HW,2013-09-08 06:21:00,
2013-09-08 02:26:00,61.6,55.0,29.83,North,0,0.0,0.0,79,0.00,,,0.00,WUHU216HW,2013-09-08 06:26:00,
2013-09-08 02:31:00,61.4,55.2,29.83,North,0,0.0,0.0,80,0.00,,,0.00,WUHU216HW,2013-09-08 06:31:00,
2013-09-08 02:36:00,61.2,55.1,29.83,North,0,0.0,0.0,80,0.00,,,0.00,WUHU216HW,2013-09-08 06:36:00,
2013-09-08 02:41:00,61.0,55.2,29.83,North,0,0.0,0.0,81,0.00,,,0.00,WUHU216HW,2013-09-08 06:41:00,
2013-09-08 02:46:00,60.8,55.4,29.82,North,0,0.0,0.0,82,0.00,,,0.00,WUHU216HW,2013-09-08 06:46:00,
2013-09-08 02:51:00,60.8,55.1,29.81,North,0,0.0,0.0,81,0.00,,,0.00,WUHU216HW,2013-09-08 06:51:00,
2013-09-08 02:56:00,60.8,55.1,29.81,North,0,0.0,0.0,81,0.00,,,0.00,WUHU216HW,2013-09-08 06:56:00,
2013-09-08 03:01:00,60.8,55.1,29.82,North,0,0.0,0.0,81,0.00,,,0.00,WUHU216HW,2013-09-08 07:01:00,
2013-09-08 03:06:00,60.8,55.4,29.81,North,0,0.0,0.0,82,0.00,,,0.00,WUHU216HW,2013-09-08 07:06:00,
2013-09-08 03:11:00,61.0,55.5,29.81,North,0,0.0,0.0,82,0.00,,,0.00,WUHU216HW,2013-09-08 07:11:00,
2013-09-08 03:16:00,61.0,55.5,29.81,North,0,0.0,0.0,82,0.00,,,0.00,WUHU216HW,2013-09-08 07:16:00,
2013-09-08 03:21:00,60.8,55.1,29.81,North,0,0.0,0.0,81,0.00,,,0.00,WUHU216HW,2013-09-08 07:21:00,
2013-09-08 03:26:00,60.5,54.7,29.81,North,0,0.0,0.0,81,0.00,,,0.00,WUHU216HW,2013-09-08 07:26:00,
2013-09-08 03:31:00,60.1,54.6,29.81,North,0,0.0,0.0,82,0.00,,,0.00,WUHU216HW,2013-09-08 07:31:00,
2013-09-08 03:36:00,60.1,55.0,29.81,North,0,0.0,0.0,83,0.00,,,0.00,WUHU216HW,2013-09-08 07:36:00,
2013-09-08 03:41:00,59.9,54.8,29.81,North,0,0.0,0.0,83,0.00,,,0.00,WUHU216HW,2013-09-08 07:41:00,
2013-09-08 03:46:00,59.8,54.6,29.81,North,0,0.0,0.0,83,0.00,,,0.00,WUHU216HW,2013-09-08 07:46:00,
2013-09-08 03:51:00,59.4,54.3,29.81,North,0,0.0,0.0,83,0.00,,,0.00,WUHU216HW,2013-09-08 07:51:00,
2013-09-08 03:56:00,59.0,53.9,29.81,North,0,0.0,0.0,83,0.00,,,0.00,WUHU216HW,2013-09-08 07:56:00,
2013-09-08 04:01:00,58.7,53.6,29.81,North,0,0.0,0.0,83,0.00,,,0.00,WUHU216HW,2013-09-08 08:01:00,
2013-09-08 04:06:00,58.5,53.6,29.81,North,0,0.0,0.0,84,0.00,,,0.00,WUHU216HW,2013-09-08 08:06:00,
2013-09-08 04:11:00,58.3,53.5,29.81,North,0,0.0,0.0,84,0.00,,,0.00,WUHU216HW,2013-09-08 08:11:00,
2013-09-08 04:16:00,58.0,53.5,29.80,North,0,0.0,0.0,85,0.00,,,0.00,WUHU216HW,2013-09-08 08:16:00,
2013-09-08 04:21:00,57.8,53.3,29.80,North,0,0.0,0.0,85,0.00,,,0.00,WUHU216HW,2013-09-08 08:21:00,
2013-09-08 04:26:00,57.8,53.7,29.80,North,0,0.0,0.0,86,0.00,,,0.00,WUHU216HW,2013-09-08 08:26:00,
2013-09-08 04:31:00,57.8,53.7,29.80,North,0,0.0,0.0,86,0.00,,,0.00,WUHU216HW,2013-09-08 08:31:00,
2013-09-08 04:36:00,57.8,53.7,29.80,North,0,0.0,0.0,86,0.00,,,0.00,WUHU216HW,2013-09-08 08:36:00,
2013-09-08 04:41:00,57.8,53.7,29.80,North,0,0.0,0.0,86,0.00,,,0.00,WUHU216HW,2013-09-08 08:41:00,
2013-09-08 04:46:00,58.0,53.8,29.80,North,0,0.0,0.0,86,0.00,,,0.00,WUHU216HW,2013-09-08 08:46:00,
2013-09-08 04:51:00,58.0,53.8,29.79,North,0,0.0,0.0,86,0.00,,,0.00,WUHU216HW,2013-09-08 08:51:00,
2013-09-08 04:56:00,58.0,53.8,29.79,North,0,0.0,0.0,86,0.00,,,0.00,WUHU216HW,2013-09-08 08:56:00,
2013-09-08 05:01:00,58.0,54.1,29.79,North,0,0.0,0.0,87,0.00,,,0.00,WUHU216HW,2013-09-08 09:01:00,
2013-09-08 05:06:00,58.0,54.1,29.79,North,0,0.0,0.0,87,0.00,,,0.00,WUHU216HW,2013-09-08 09:06:00,
2013-09-08 05:11:00,58.0,54.1,29.79,North,0,0.0,0.0,87,0.00,,,0.00,WUHU216HW,2013-09-08 09:11:00,
2013-09-08 05:16:00,58.0,54.1,29.79,North,0,0.0,0.0,87,0.00,,,0.00,WUHU216HW,2013-09-08 09:16:00,
2013-09-08 05:21:00,57.8,53.7,29.78,North,0,0.0,0.0,86,0.00,,,0.00,WUHU216HW,2013-09-08 09:21:00,
2013-09-08 05:26:00,57.8,53.9,29.78,North,0,0.0,0.0,87,0.00,,,0.00,WUHU216HW,2013-09-08 09:26:00,
2013-09-08 05:31:00,57.6,53.7,29.78,North,0,0.0,0.0,87,0.00,,,0.00,WUHU216HW,2013-09-08 09:31:00,
2013-09-08 05:36:00,57.6,53.7,29.78,North,0,0.0,0.0,87,0.00,,,0.00,WUHU216HW,2013-09-08 09:36:00,
2013-09-08 05:41:00,57.6,53.7,29.78,North,0,0.0,0.0,87,0.00,,,0.00,WUHU216HW,2013-09-08 09:41:00,
2013-09-08 05:46:00,57.6,53.7,29.77,North,0,0.0,0.0,87,0.00,,,0.00,WUHU216HW,2013-09-08 09:46:00,
2013-09-08 05:51:00,57.4,53.6,29.77,North,0,0.0,0.0,87,0.00,,,0.00,WUHU216HW,2013-09-08 09:51:00,
2013-09-08 05:56:00,57.4,53.6,29.78,North,0,0.0,0.0,87,0.00,,,0.00,WUHU216HW,2013-09-08 09:56:00,
2013-09-08 06:01:00,57.2,53.1,29.78,North,0,0.0,0.0,86,0.00,,,0.00,WUHU216HW,2013-09-08 10:01:00,
2013-09-08 06:06:00,57.1,52.9,29.78,North,0,0.0,0.0,86,0.00,,,0.00,WUHU216HW,2013-09-08 10:06:00,
2013-09-08 06:11:00,57.1,52.9,29.79,North,0,0.0,0.0,86,0.00,,,0.00,WUHU216HW,2013-09-08 10:11:00,
2013-09-08 06:16:00,57.1,52.9,29.79,North,0,0.0,0.0,86,0.00,,,0.00,WUHU216HW,2013-09-08 10:16:00,
2013-09-08 06:21:00,57.2,53.4,29.78,North,0,0.0,0.0,87,0.00,,,0.00,WUHU216HW,2013-09-08 10:21:00,
2013-09-08 06:26:00,57.2,53.4,29.78,North,0,0.0,0.0,87,0.00,,,0.00,WUHU216HW,2013-09-08 10:26:00,
2013-09-08 06:31:00,57.2,53.7,29.78,North,0,0.0,0.0,88,0.00,,,0.00,WUHU216HW,2013-09-08 10:31:00,
2013-09-08 06:36:00,57.2,53.4,29.78,North,0,0.0,0.0,87,0.00,,,0.00,WUHU216HW,2013-09-08 10:36:00,
2013-09-08 06:41:00,57.2,53.4,29.78,North,0,0.0,0.0,87,0.00,,,0.00,WUHU216HW,2013-09-08 10:41:00,
2013-09-08 06:46:00,57.2,53.7,29.78,North,0,0.0,0.0,88,0.00,,,0.00,WUHU216HW,2013-09-08 10:46:00,
2013-09-08 06:51:00,57.4,53.9,29.78,North,0,0.0,0.0,88,0.00,,,0.00,WUHU216HW,2013-09-08 10:51:00,
2013-09-08 06:56:00,57.6,54.1,29.78,North,0,0.0,0.0,88,0.00,,,0.00,WUHU216HW,2013-09-08 10:56:00,
2013-09-08 07:01:00,58.0,54.5,29.79,North,0,0.0,0.0,88,0.00,,,0.00,WUHU216HW,2013-09-08 11:01:00,
2013-09-08 07:06:00,58.3,55.1,29.79,North,0,0.0,0.0,89,0.00,,,0.00,WUHU216HW,2013-09-08 11:06:00,
2013-09-08 07:11:00,58.7,55.4,29.79,North,0,0.0,0.0,89,0.00,,,0.00,WUHU216HW,2013-09-08 11:11:00,
2013-09-08 07:16:00,59.2,56.0,29.79,North,0,0.0,0.0,89,0.00,,,0.00,WUHU216HW,2013-09-08 11:16:00,
2013-09-08 07:21:00,59.6,56.3,29.78,North,0,0.0,0.0,89,0.00,,,0.00,WUHU216HW,2013-09-08 11:21:00,
2013-09-08 07:26:00,60.3,57.1,29.78,North,0,0.0,0.0,89,0.00,,,0.00,WUHU216HW,2013-09-08 11:26:00,
2013-09-08 07:31:00,61.0,57.5,29.78,North,0,0.0,0.0,88,0.00,,,0.00,WUHU216HW,2013-09-08 11:31:00,
2013-09-08 07:36:00,61.6,57.7,29.78,North,0,0.0,0.0,87,0.00,,,0.00,WUHU216HW,2013-09-08 11:36:00,
2013-09-08 07:41:00,62.3,58.4,29.78,North,0,0.0,0.0,87,0.00,,,0.00,WUHU216HW,2013-09-08 11:41:00,
2013-09-08 07:46:00,62.8,58.6,29.77,North,0,0.0,0.0,86,0.00,,,0.00,WUHU216HW,2013-09-08 11:46:00,
2013-09-08 07:51:00,63.5,59.0,29.77,North,0,0.0,0.0,85,0.00,,,0.00,WUHU216HW,2013-09-08 11:51:00,
2013-09-08 07:56:00,64.1,58.8,29.78,North,0,0.0,0.0,83,0.00,,,0.00,WUHU216HW,2013-09-08 11:56:00,
2013-09-08 08:01:00,64.6,59.3,29.78,North,0,0.0,0.0,83,0.00,,,0.00,WUHU216HW,2013-09-08 12:01:00,
2013-09-08 08:06:00,65.5,60.2,29.78,North,0,0.0,0.0,83,0.00,,,0.00,WUHU216HW,2013-09-08 12:06:00,
2013-09-08 08:11:00,66.1,60.4,29.78,North,0,0.0,0.0,82,0.00,,,0.00,WUHU216HW,2013-09-08 12:11:00,
2013-09-08 08:16:00,66.4,60.1,29.78,North,0,0.0,0.0,80,0.00,,,0.00,WUHU216HW,2013-09-08 12:16:00,
2013-09-08 08:21:00,67.0,60.7,29.78,North,0,0.0,0.0,80,0.00,,,0.00,WUHU216HW,2013-09-08 12:21:00,
2013-09-08 08:26:00,67.3,60.7,29.78,North,0,0.0,0.0,79,0.00,,,0.00,WUHU216HW,2013-09-08 12:26:00,
2013-09-08 08:31:00,67.3,60.7,29.78,North,0,0.0,0.0,79,0.00,,,0.00,WUHU216HW,2013-09-08 12:31:00,
2013-09-08 08:36:00,67.5,60.5,29.78,North,0,0.0,0.0,78,0.00,,,0.00,WUHU216HW,2013-09-08 12:36:00,
2013-09-08 08:41:00,67.9,60.4,29.78,North,0,0.0,0.0,77,0.00,,,0.00,WUHU216HW,2013-09-08 12:41:00,
2013-09-08 08:46:00,68.8,61.7,29.78,North,0,0.0,0.0,78,0.00,,,0.00,WUHU216HW,2013-09-08 12:46:00,
2013-09-08 08:51:00,70.2,61.8,29.78,North,0,0.0,0.0,75,0.00,,,0.00,WUHU216HW,2013-09-08 12:51:00,
2013-09-08 08:56:00,70.9,62.2,29.78,North,0,0.0,0.0,74,0.00,,,0.00,WUHU216HW,2013-09-08 12:56:00,
2013-09-08 09:01:00,71.6,61.7,29.78,North,0,0.0,0.0,71,0.00,,,0.00,WUHU216HW,2013-09-08 13:01:00,
2013-09-08 09:06:00,72.0,62.9,29.78,North,0,0.0,0.0,73,0.00,,,0.00,WUHU216HW,2013-09-08 13:06:00,
2013-09-08 09:11:00,73.4,63.9,29.78,North,0,0.0,0.0,72,0.00,,,0.00,WUHU216HW,2013-09-08 13:11:00,
2013-09-08 09:16:00,74.5,64.2,29.78,North,0,0.0,0.0,70,0.00,,,0.00,WUHU216HW,2013-09-08 13:16:00,
2013-09-08 09:21:00,74.5,62.8,29.78,North,0,0.0,0.0,67,0.00,,,0.00,WUHU216HW,2013-09-08 13:21:00,
2013-09-08 09:26:00,74.0,62.8,29.78,North,0,0.0,0.0,68,0.00,,,0.00,WUHU216HW,2013-09-08 13:26:00,
2013-09-08 09:31:00,74.3,62.6,29.78,North,0,0.0,0.0,67,0.00,,,0.00,WUHU216HW,2013-09-08 13:31:00,
2013-09-08 09:36:00,74.3,62.6,29.78,North,0,0.0,0.0,67,0.00,,,0.00,WUHU216HW,2013-09-08 13:36:00,
2013-09-08 09:41:00,74.5,62.4,29.78,North,0,0.0,0.0,66,0.00,,,0.00,WUHU216HW,2013-09-08 13:41:00,
2013-09-08 09:46:00,74.7,63.0,29.78,North,0,0.0,0.0,67,0.00,,,0.00,WUHU216HW,2013-09-08 13:46:00,
2013-09-08 09:51:00,74.5,62.4,29.78,North,0,0.0,0.0,66,0.00,,,0.00,WUHU216HW,2013-09-08 13:51:00,
2013-09-08 09:56:00,74.9,63.2,29.78,North,0,0.0,0.0,67,0.00,,,0.00,WUHU216HW,2013-09-08 13:56:00,
2013-09-08 10:01:00,74.9,62.3,29.78,North,0,0.0,0.0,65,0.00,,,0.00,WUHU216HW,2013-09-08 14:01:00,
2013-09-08 10:06:00,75.1,62.9,29.78,North,0,0.0,0.0,66,0.00,,,0.00,WUHU216HW,2013-09-08 14:06:00,
2013-09-08 10:11:00,74.9,62.3,29.78,North,0,0.0,0.0,65,0.00,,,0.00,WUHU216HW,2013-09-08 14:11:00,
2013-09-08 10:16:00,74.5,62.4,29.78,North,0,0.0,0.0,66,0.00,,,0.00,WUHU216HW,2013-09-08 14:16:00,
2013-09-08 10:21:00,75.1,62.9,29.78,North,0,0.0,0.0,66,0.00,,,0.00,WUHU216HW,2013-09-08 14:21:00,
2013-09-08 10:26:00,75.1,62.0,29.79,North,0,0.0,0.0,64,0.00,,,0.00,WUHU216HW,2013-09-08 14:26:00,
2013-09-08 10:31:00,74.2,61.7,29.79,North,0,0.0,0.0,65,0.00,,,0.00,WUHU216HW,2013-09-08 14:31:00,
2013-09-08 10:36:00,73.3,60.8,29.79,North,0,0.0,0.0,65,0.00,,,0.00,WUHU216HW,2013-09-08 14:36:00,
2013-09-08 10:41:00,72.5,60.5,29.79,North,0,0.0,0.0,66,0.00,,,0.00,WUHU216HW,2013-09-08 14:41:00,
2013-09-08 10:46:00,72.4,61.2,29.79,North,0,0.0,0.0,68,0.00,,,0.00,WUHU216HW,2013-09-08 14:46:00,
2013-09-08 10:51:00,72.9,61.3,29.79,North,0,0.0,0.0,67,0.00,,,0.00,WUHU216HW,2013-09-08 14:51:00,
2013-09-08 10:56:00,72.7,61.1,29.79,North,0,0.0,0.0,67,0.00,,,0.00,WUHU216HW,2013-09-08 14:56:00,
2013-09-08 11:01:00,72.7,60.7,29.79,North,0,0.0,0.0,66,0.00,,,0.00,WUHU216HW,2013-09-08 15:01:00,
2013-09-08 11:06:00,73.4,61.8,29.79,North,0,0.0,0.0,67,0.00,,,0.00,WUHU216HW,2013-09-08 15:06:00,
2013-09-08 11:11:00,74.3,61.8,29.79,North,0,0.0,0.0,65,0.00,,,0.00,WUHU216HW,2013-09-08 15:11:00,
2013-09-08 11:16:00,74.9,62.3,29.79,North,0,0.0,0.0,65,0.00,,,0.00,WUHU216HW,2013-09-08 15:16:00,
2013-09-08 11:21:00,75.2,62.2,29.79,North,0,0.0,0.0,64,0.00,,,0.00,WUHU216HW,2013-09-08 15:21:00,
2013-09-08 11:26:00,76.0,62.9,29.79,North,0,0.0,0.0,64,0.00,,,0.00,WUHU216HW,2013-09-08 15:26:00,
2013-09-08 11:31:00,76.5,62.9,29.79,North,0,0.0,0.0,63,0.00,,,0.00,WUHU216HW,2013-09-08 15:31:00,
2013-09-08 11:36:00,76.7,61.7,29.79,North,0,0.0,0.0,60,0.00,,,0.00,WUHU216HW,2013-09-08 15:36:00,
2013-09-08 11:41:00,76.0,61.6,29.79,North,0,0.0,0.0,61,0.00,,,0.00,WUHU216HW,2013-09-08 15:41:00,
2013-09-08 11:46:00,75.8,61.4,29.80,North,0,0.0,0.0,61,0.00,,,0.00,WUHU216HW,2013-09-08 15:46:00,
2013-09-08 11:51:00,76.0,61.1,29.80,North,0,0.0,0.0,60,0.00,,,0.00,WUHU216HW,2013-09-08 15:51:00,
2013-09-08 11:56:00,76.1,61.8,29.80,North,0,0.0,0.0,61,0.00,,,0.00,WUHU216HW,2013-09-08 15:56:00,
2013-09-08 12:01:00,75.8,61.4,29.80,North,0,0.0,0.0,61,0.00,,,0.00,WUHU216HW,2013-09-08 16:01:00,
2013-09-08 12:06:00,76.1,62.2,29.81,North,0,0.0,0.0,62,0.00,,,0.00,WUHU216HW,2013-09-08 16:06:00,
2013-09-08 12:11:00,76.9,61.5,29.81,North,0,0.0,0.0,59,0.00,,,0.00,WUHU216HW,2013-09-08 16:11:00,
2013-09-08 12:16:00,76.5,60.1,29.81,North,0,0.0,0.0,57,0.00,,,0.00,WUHU216HW,2013-09-08 16:16:00,
2013-09-08 12:21:00,76.0,60.1,29.82,North,0,0.0,0.0,58,0.00,,,0.00,WUHU216HW,2013-09-08 16:21:00,
2013-09-08 12:26:00,75.6,59.3,29.81,North,0,0.0,0.0,57,0.00,,,0.00,WUHU216HW,2013-09-08 16:26:00,
2013-09-08 12:31:00,75.2,59.0,29.82,North,0,0.0,0.0,57,0.00,,,0.00,WUHU216HW,2013-09-08 16:31:00,
2013-09-08 12:36:00,74.9,59.1,29.82,North,0,0.0,0.0,58,0.00,,,0.00,WUHU216HW,2013-09-08 16:36:00,
2013-09-08 12:41:00,75.1,59.8,29.82,North,0,0.0,0.0,59,0.00,,,0.00,WUHU216HW,2013-09-08 16:41:00,
2013-09-08 12:46:00,74.5,59.2,29.83,North,0,0.0,0.0,59,0.00,,,0.00,WUHU216HW,2013-09-08 16:46:00,
2013-09-08 12:51:00,73.1,57.9,29.83,North,0,0.0,0.0,59,0.00,,,0.00,WUHU216HW,2013-09-08 16:51:00,
2013-09-08 12:56:00,71.8,57.7,29.83,North,0,0.0,0.0,61,0.00,,,0.00,WUHU216HW,2013-09-08 16:56:00,
2013-09-08 13:01:00,72.4,59.1,29.83,North,0,0.0,0.0,63,0.00,,,0.00,WUHU216HW,2013-09-08 17:01:00,
2013-09-08 13:06:00,73.1,57.9,29.83,North,0,0.0,0.0,59,0.00,,,0.00,WUHU216HW,2013-09-08 17:06:00,
2013-09-08 13:11:00,72.5,57.3,29.83,North,0,0.0,0.0,59,0.00,,,0.00,WUHU216HW,2013-09-08 17:11:00,
2013-09-08 13:16:00,72.7,57.5,29.83,North,0,0.0,0.0,59,0.00,,,0.00,WUHU216HW,2013-09-08 17:16:00,
2013-09-08 13:21:00,73.4,57.7,29.83,North,0,0.0,0.0,58,0.00,,,0.00,WUHU216HW,2013-09-08 17:21:00,
2013-09-08 13:26:00,74.2,57.4,29.83,North,0,0.0,0.0,56,0.00,,,0.00,WUHU216HW,2013-09-08 17:26:00,
2013-09-08 13:31:00,74.2,56.3,29.83,North,0,0.0,0.0,54,0.00,,,0.00,WUHU216HW,2013-09-08 17:31:00,
2013-09-08 13:36:00,74.3,54.5,29.83,North,0,0.0,0.0,50,0.00,,,0.00,WUHU216HW,2013-09-08 17:36:00,
2013-09-08 13:41:00,73.6,53.8,29.84,North,0,0.0,0.0,50,0.00,,,0.00,WUHU216HW,2013-09-08 17:41:00,
2013-09-08 13:46:00,72.5,52.8,29.84,North,0,0.0,0.0,50,0.00,,,0.00,WUHU216HW,2013-09-08 17:46:00,
2013-09-08 13:51:00,71.8,52.7,29.84,North,0,0.0,0.0,51,0.00,,,0.00,WUHU216HW,2013-09-08 17:51:00,
2013-09-08 13:56:00,71.8,52.7,29.84,North,0,0.0,0.0,51,0.00,,,0.00,WUHU216HW,2013-09-08 17:56:00,
2013-09-08 14:01:00,72.5,52.8,29.84,North,0,0.0,0.0,50,0.00,,,0.00,WUHU216HW,2013-09-08 18:01:00,
2013-09-08 14:06:00,72.4,50.9,29.84,North,0,0.0,0.0,47,0.00,,,0.00,WUHU216HW,2013-09-08 18:06:00,
2013-09-08 14:11:00,72.0,51.1,29.84,North,0,0.0,0.0,48,0.00,,,0.00,WUHU216HW,2013-09-08 18:11:00,
2013-09-08 14:16:00,71.6,52.0,29.84,North,0,0.0,0.0,50,0.00,,,0.00,WUHU216HW,2013-09-08 18:16:00,
2013-09-08 14:21:00,71.3,51.1,29.84,North,0,0.0,0.0,49,0.00,,,0.00,WUHU216HW,2013-09-08 18:21:00,
2013-09-08 14:26:00,71.1,51.6,29.84,North,0,0.0,0.0,50,0.00,,,0.00,WUHU216HW,2013-09-08 18:26:00,
2013-09-08 14:31:00,71.5,51.3,29.85,North,0,0.0,0.0,49,0.00,,,0.00,WUHU216HW,2013-09-08 18:31:00,
2013-09-08 14:36:00,71.6,52.6,29.85,North,0,0.0,0.0,51,0.00,,,0.00,WUHU216HW,2013-09-08 18:36:00,
2013-09-08 14:41:00,71.5,51.3,29.85,North,0,0.0,0.0,49,0.00,,,0.00,WUHU216HW,2013-09-08 18:41:00,
2013-09-08 14:46:00,71.3,52.2,29.85,North,0,0.0,0.0,51,0.00,,,0.00,WUHU216HW,2013-09-08 18:46:00,
2013-09-08 14:51:00,71.1,50.3,29.85,North,0,0.0,0.0,48,0.00,,,0.00,WUHU216HW,2013-09-08 18:51:00,
2013-09-08 14:56:00,70.4,49.2,29.86,North,0,0.0,0.0,47,0.00,,,0.00,WUHU216HW,2013-09-08 18:56:00,
2013-09-08 15:01:00,69.7,49.7,29.85,North,0,0.0,0.0,49,0.00,,,0.00,WUHU216HW,2013-09-08 19:01:00,
2013-09-08 15:06:00,69.5,48.9,29.86,North,0,0.0,0.0,48,0.00,,,0.00,WUHU216HW,2013-09-08 19:06:00,
2013-09-08 15:11:00,69.5,49.5,29.86,North,0,0.0,0.0,49,0.00,,,0.00,WUHU216HW,2013-09-08 19:11:00,
2013-09-08 15:16:00,69.8,48.6,29.86,North,0,0.0,0.0,47,0.00,,,0.00,WUHU216HW,2013-09-08 19:16:00,
2013-09-08 15:21:00,69.8,49.2,29.87,North,0,0.0,0.0,48,0.00,,,0.00,WUHU216HW,2013-09-08 19:21:00,
2013-09-08 15:26:00,69.5,48.3,29.87,North,0,0.0,0.0,47,0.00,,,0.00,WUHU216HW,2013-09-08 19:26:00,
2013-09-08 15:31:00,69.3,47.5,29.87,North,0,0.0,0.0,46,0.00,,,0.00,WUHU216HW,2013-09-08 19:31:00,
2013-09-08 15:36:00,69.1,46.8,29.87,North,0,0.0,0.0,45,0.00,,,0.00,WUHU216HW,2013-09-08 19:36:00,
2013-09-08 15:41:00,68.8,45.3,29.87,North,0,0.0,0.0,43,0.00,,,0.00,WUHU216HW,2013-09-08 19:41:00,
2013-09-08 15:46:00,68.8,46.4,29.87,North,0,0.0,0.0,45,0.00,,,0.00,WUHU216HW,2013-09-08 19:46:00,
2013-09-08 15:51:00,68.6,45.1,29.88,North,0,0.0,0.0,43,0.00,,,0.00,WUHU216HW,2013-09-08 19:51:00,
2013-09-08 15:56:00,68.4,45.5,29.88,North,0,0.0,0.0,44,0.00,,,0.00,WUHU216HW,2013-09-08 19:56:00,
2013-09-08 16:01:00,68.4,44.9,29.88,North,0,0.0,0.0,43,0.00,,,0.00,WUHU216HW,2013-09-08 20:01:00,
2013-09-08 16:06:00,68.2,45.4,29.88,North,0,0.0,0.0,44,0.00,,,0.00,WUHU216HW,2013-09-08 20:06:00,
2013-09-08 16:11:00,68.0,45.8,29.88,North,0,0.0,0.0,45,0.00,,,0.00,WUHU216HW,2013-09-08 20:11:00,
2013-09-08 16:16:00,67.7,44.9,29.88,North,0,0.0,0.0,44,0.00,,,0.00,WUHU216HW,2013-09-08 20:16:00,
2013-09-08 16:21:00,67.5,45.4,29.88,North,0,0.0,0.0,45,0.00,,,0.00,WUHU216HW,2013-09-08 20:21:00,
2013-09-08 16:26:00,67.3,44.6,29.89,North,0,0.0,0.0,44,0.00,,,0.00,WUHU216HW,2013-09-08 20:26:00,
2013-09-08 16:31:00,67.3,45.7,29.89,North,0,0.0,0.0,46,0.00,,,0.00,WUHU216HW,2013-09-08 20:31:00,
2013-09-08 16:36:00,67.0,45.5,29.89,North,0,0.0,0.0,46,0.00,,,0.00,WUHU216HW,2013-09-08 20:36:00,
2013-09-08 16:41:00,66.8,44.1,29.89,North,0,0.0,0.0,44,0.00,,,0.00,WUHU216HW,2013-09-08 20:41:00,
2013-09-08 16:46:00,66.4,44.4,29.90,North,0,0.0,0.0,45,0.00,,,0.00,WUHU216HW,2013-09-08 20:46:00,
2013-09-08 16:51:00,66.2,44.2,29.90,North,0,0.0,0.0,45,0.00,,,0.00,WUHU216HW,2013-09-08 20:51:00,
2013-09-08 16:56:00,66.2,44.8,29.90,North,0,0.0,0.0,46,0.00,,,0.00,WUHU216HW,2013-09-08 20:56:00,
2013-09-08 17:01:00,66.2,44.2,29.90,North,0,0.0,0.0,45,0.00,,,0.00,WUHU216HW,2013-09-08 21:01:00,
2013-09-08 17:06:00,66.1,44.7,29.91,North,0,0.0,0.0,46,0.00,,,0.00,WUHU216HW,2013-09-08 21:06:00,
2013-09-08 17:11:00,66.1,44.0,29.91,North,0,0.0,0.0,45,0.00,,,0.00,WUHU216HW,2013-09-08 21:11:00,
2013-09-08 17:16:00,65.9,44.5,29.91,North,0,0.0,0.0,46,0.00,,,0.00,WUHU216HW,2013-09-08 21:16:00,
2013-09-08 17:21:00,65.7,43.7,29.91,North,0,0.0,0.0,45,0.00,,,0.00,WUHU216HW,2013-09-08 21:21:00,
2013-09-08 17:26:00,65.3,43.9,29.91,North,0,0.0,0.0,46,0.00,,,0.00,WUHU216HW,2013-09-08 21:26:00,
2013-09-08 17:31:00,65.2,43.2,29.92,North,0,0.0,0.0,45,0.00,,,0.00,WUHU216HW,2013-09-08 21:31:00,
2013-09-08 17:36:00,64.8,42.9,29.92,North,0,0.0,0.0,45,0.00,,,0.00,WUHU216HW,2013-09-08 21:36:00,
2013-09-08 17:41:00,64.6,43.2,29.92,North,0,0.0,0.0,46,0.00,,,0.00,WUHU216HW,2013-09-08 21:41:00,
2013-09-08 17:46:00,64.4,43.7,29.93,North,0,0.0,0.0,47,0.00,,,0.00,WUHU216HW,2013-09-08 21:46:00,
2013-09-08 17:51:00,64.3,44.0,29.93,North,0,0.0,0.0,48,0.00,,,0.00,WUHU216HW,2013-09-08 21:51:00,
2013-09-08 17:56:00,64.1,44.5,29.93,North,0,0.0,0.0,49,0.00,,,0.00,WUHU216HW,2013-09-08 21:56:00,
2013-09-08 18:01:00,63.7,43.6,29.93,North,0,0.0,0.0,48,0.00,,,0.00,WUHU216HW,2013-09-08 22:01:00,
2013-09-08 18:06:00,63.5,44.0,29.94,North,0,0.0,0.0,49,0.00,,,0.00,WUHU216HW,2013-09-08 22:06:00,
2013-09-08 18:11:00,63.2,44.2,29.94,North,0,0.0,0.0,50,0.00,,,0.00,WUHU216HW,2013-09-08 22:11:00,
2013-09-08 18:16:00,63.0,44.1,29.94,North,0,0.0,0.0,50,0.00,,,0.00,WUHU216HW,2013-09-08 22:16:00,
2013-09-08 18:21:00,62.6,43.7,29.94,North,0,0.0,0.0,50,0.00,,,0.00,WUHU216HW,2013-09-08 22:21:00,
2013-09-08 18:26:00,62.3,43.4,29.95,North,0,0.0,0.0,50,0.00,,,0.00,WUHU216HW,2013-09-08 22:26:00,
2013-09-08 18:31:00,62.1,43.3,29.96,North,0,0.0,0.0,50,0.00,,,0.00,WUHU216HW,2013-09-08 22:31:00,
2013-09-08 18:36:00,61.6,43.3,29.96,North,0,0.0,0.0,51,0.00,,,0.00,WUHU216HW,2013-09-08 22:36:00,
2013-09-08 18:41:00,60.8,42.6,29.96,North,0,0.0,0.0,51,0.00,,,0.00,WUHU216HW,2013-09-08 22:41:00,
2013-09-08 18:46:00,60.5,42.8,29.97,North,0,0.0,0.0,52,0.00,,,0.00,WUHU216HW,2013-09-08 22:46:00,
2013-09-08 18:51:00,60.1,42.4,29.97,North,0,0.0,0.0,52,0.00,,,0.00,WUHU216HW,2013-09-08 22:51:00,
2013-09-08 18:56:00,59.8,42.6,29.97,North,0,0.0,0.0,53,0.00,,,0.00,WUHU216HW,2013-09-08 22:56:00,
2013-09-08 19:01:00,59.4,42.2,29.97,North,0,0.0,0.0,53,0.00,,,0.00,WUHU216HW,2013-09-08 23:01:00,
2013-09-08 19:06:00,59.0,42.4,29.97,North,0,0.0,0.0,54,0.00,,,0.00,WUHU216HW,2013-09-08 23:06:00,
2013-09-08 19:11:00,58.7,42.0,29.98,North,0,0.0,0.0,54,0.00,,,0.00,WUHU216HW,2013-09-08 23:11:00,
2013-09-08 19:16:00,58.1,42.5,29.98,North,0,0.0,0.0,56,0.00,,,0.00,WUHU216HW,2013-09-08 23:16:00,
2013-09-08 19:21:00,57.8,42.2,29.98,North,0,0.0,0.0,56,0.00,,,0.00,WUHU216HW,2013-09-08 23:21:00,
2013-09-08 19:26:00,57.4,41.9,29.98,North,0,0.0,0.0,56,0.00,,,0.00,WUHU216HW,2013-09-08 23:26:00,
2013-09-08 19:31:00,57.2,41.7,29.99,North,0,0.0,0.0,56,0.00,,,0.00,WUHU216HW,2013-09-08 23:31:00,
2013-09-08 19:36:00,57.2,41.7,29.99,North,0,0.0,0.0,56,0.00,,,0.00,WUHU216HW,2013-09-08 23:36:00,
2013-09-08 19:41:00,56.9,41.8,29.99,North,0,0.0,0.0,57,0.00,,,0.00,WUHU216HW,2013-09-08 23:41:00,
2013-09-08 19:46:00,56.3,41.2,30.00,North,0,0.0,0.0,57,0.00,,,0.00,WUHU216HW,2013-09-08 23:46:00,
2013-09-08 19:51:00,55.8,41.2,30.01,North,0,0.0,0.0,58,0.00,,,0.00,WUHU216HW,2013-09-08 23:51:00,
2013-09-08 19:56:00,55.3,41.1,30.01,North,0,0.0,0.0,59,0.00,,,0.00,WUHU216HW,2013-09-08 23:56:00,
2013-09-08 20:01:00,54.9,40.8,30.01,North,0,0.0,0.0,59,0.00,,,0.00,WUHU216HW,2013-09-09 00:01:00,
2013-09-08 20:06:00,54.5,41.0,30.02,North,0,0.0,0.0,60,0.00,,,0.00,WUHU216HW,2013-09-09 00:06:00,
2013-09-08 20:11:00,54.4,40.8,30.02,North,0,0.0,0.0,60,0.00,,,0.00,WUHU216HW,2013-09-09 00:11:00,
2013-09-08 20:16:00,54.2,41.1,30.03,North,0,0.0,0.0,61,0.00,,,0.00,WUHU216HW,2013-09-09 00:16:00,
2013-09-08 20:21:00,54.2,41.1,30.03,North,0,0.0,0.0,61,0.00,,,0.00,WUHU216HW,2013-09-09 00:21:00,
2013-09-08 20:26:00,54.0,40.9,30.03,North,0,0.0,0.0,61,0.00,,,0.00,WUHU216HW,2013-09-09 00:26:00,
2013-09-08 20:31:00,54.0,41.2,30.04,North,0,0.0,0.0,62,0.00,,,0.00,WUHU216HW,2013-09-09 00:31:00,
2013-09-08 20:36:00,53.8,40.7,30.04,North,0,0.0,0.0,61,0.00,,,0.00,WUHU216HW,2013-09-09 00:36:00,
2013-09-08 20:41:00,53.8,40.7,30.04,North,0,0.0,0.0,61,0.00,,,0.00,WUHU216HW,2013-09-09 00:41:00,
2013-09-08 20:46:00,53.8,40.7,30.04,North,0,0.0,0.0,61,0.00,,,0.00,WUHU216HW,2013-09-09 00:46:00,
2013-09-08 20:51:00,54.0,40.9,30.05,North,0,0.0,0.0,61,0.00,,,0.00,WUHU216HW,2013-09-09 00:51:00,
2013-09-08 20:56:00,53.8,40.7,30.05,North,0,0.0,0.0,61,0.00,,,0.00,WUHU216HW,2013-09-09 00:56:00,
2013-09-08 21:01:00,53.8,40.7,30.06,North,0,0.0,0.0,61,0.00,,,0.00,WUHU216HW,2013-09-09 01:01:00,
2013-09-08 21:06:00,53.5,40.0,30.06,North,0,0.0,0.0,60,0.00,,,0.00,WUHU216HW,2013-09-09 01:06:00,
2013-09-08 21:11:00,53.1,40.0,30.06,North,0,0.0,0.0,61,0.00,,,0.00,WUHU216HW,2013-09-09 01:11:00,
2013-09-08 21:16:00,52.7,39.6,30.06,North,0,0.0,0.0,61,0.00,,,0.00,WUHU216HW,2013-09-09 01:16:00,
2013-09-08 21:21:00,52.4,39.7,30.06,North,0,0.0,0.0,62,0.00,,,0.00,WUHU216HW,2013-09-09 01:21:00,
2013-09-08 21:26:00,52.2,39.5,30.06,North,0,0.0,0.0,62,0.00,,,0.00,WUHU216HW,2013-09-09 01:26:00,
2013-09-08 21:31:00,51.8,39.6,30.06,North,0,0.0,0.0,63,0.00,,,0.00,WUHU216HW,2013-09-09 01:31:00,
2013-09-08 21:36:00,51.5,39.7,30.06,North,0,0.0,0.0,64,0.00,,,0.00,WUHU216HW,2013-09-09 01:36:00,
2013-09-08 21:41:00,51.1,39.3,30.06,North,0,0.0,0.0,64,0.00,,,0.00,WUHU216HW,2013-09-09 01:41:00,
2013-09-08 21:46:00,50.8,39.4,30.07,North,0,0.0,0.0,65,0.00,,,0.00,WUHU216HW,2013-09-09 01:46:00,
2013-09-08 21:51:00,50.2,38.4,30.07,North,0,0.0,0.0,64,0.00,,,0.00,WUHU216HW,2013-09-09 01:51:00,
2013-09-08 21:56:00,50.0,38.7,30.07,North,0,0.0,0.0,65,0.00,,,0.00,WUHU216HW,2013-09-09 01:56:00,
2013-09-08 22:01:00,50.0,39.1,30.07,North,0,0.0,0.0,66,0.00,,,0.00,WUHU216HW,2013-09-09 02:01:00,
2013-09-08 22:06:00,49.9,39.3,30.07,North,0,0.0,0.0,67,0.00,,,0.00,WUHU216HW,2013-09-09 02:06:00,
2013-09-08 22:11:00,49.9,39.7,30.08,North,0,0.0,0.0,68,0.00,,,0.00,WUHU216HW,2013-09-09 02:11:00,
2013-09-08 22:16:00,49.7,39.5,30.08,North,0,0.0,0.0,68,0.00,,,0.00,WUHU216HW,2013-09-09 02:16:00,
2013-09-08 22:21:00,49.3,38.8,30.08,North,0,0.0,0.0,67,0.00,,,0.00,WUHU216HW,2013-09-09 02:21:00,
2013-09-08 22:26:00,49.1,39.0,30.08,North,0,0.0,0.0,68,0.00,,,0.00,WUHU216HW,2013-09-09 02:26:00,
2013-09-08 22:31:00,49.1,39.0,30.08,North,0,0.0,0.0,68,0.00,,,0.00,WUHU216HW,2013-09-09 02:31:00,
2013-09-08 22:36:00,49.3,39.2,30.08,North,0,0.0,0.0,68,0.00,,,0.00,WUHU216HW,2013-09-09 02:36:00,
2013-09-08 22:41:00,49.5,39.3,30.09,North,0,0.0,0.0,68,0.00,,,0.00,WUHU216HW,2013-09-09 02:41:00,
2013-09-08 22:46:00,49.7,39.5,30.09,North,0,0.0,0.0,68,0.00,,,0.00,WUHU216HW,2013-09-09 02:46:00,
2013-09-08 22:51:00,49.5,39.3,30.09,North,0,0.0,0.0,68,0.00,,,0.00,WUHU216HW,2013-09-09 02:51:00,
2013-09-08 22:56:00,49.5,39.3,30.09,North,0,0.0,0.0,68,0.00,,,0.00,WUHU216HW,2013-09-09 02:56:00,
2013-09-08 23:01:00,49.5,39.3,30.09,North,0,0.0,0.0,68,0.00,,,0.00,WUHU216HW,2013-09-09 03:01:00,
2013-09-08 23:06:00,49.3,39.2,30.09,North,0,0.0,0.0,68,0.00,,,0.00,WUHU216HW,2013-09-09 03:06:00,
2013-09-08 23:11:00,49.1,39.4,30.09,North,0,0.0,0.0,69,0.00,,,0.00,WUHU216HW,2013-09-09 03:11:00,
2013-09-08 23:16:00,49.1,39.4,30.09,North,0,0.0,0.0,69,0.00,,,0.00,WUHU216HW,2013-09-09 03:16:00,
2013-09-08 23:21:00,49.3,39.6,30.09,North,0,0.0,0.0,69,0.00,,,0.00,WUHU216HW,2013-09-09 03:21:00,
2013-09-08 23:26:00,49.7,39.5,30.09,North,0,0.0,0.0,68,0.00,,,0.00,WUHU216HW,2013-09-09 03:26:00,
2013-09-08 23:31:00,49.9,39.7,30.09,North,0,0.0,0.0,68,0.00,,,0.00,WUHU216HW,2013-09-09 03:31:00,
2013-09-08 23:36:00,50.0,39.9,30.10,North,0,0.0,0.0,68,0.00,,,0.00,WUHU216HW,2013-09-09 03:36:00,
2013-09-08 23:41:00,50.2,40.1,30.10,North,0,0.0,0.0,68,0.00,,,0.00,WUHU216HW,2013-09-09 03:41:00,
2013-09-08 23:46:00,50.2,40.1,30.10,North,0,0.0,0.0,68,0.00,,,0.00,WUHU216HW,2013-09-09 03:46:00,
2013-09-08 23:51:00,50.2,39.7,30.10,North,0,0.0,0.0,67,0.00,,,0.00,WUHU216HW,2013-09-09 03:51:00,
2013-09-08 23:56:00,50.0,39.5,30.11,North,0,0.0,0.0,67,0.00,,,0.00,WUHU216HW,2013-09-09 03:56:00,